#timestamp,LO_Frequency,Hit,StdDev 
1522969215.6,286047035.6,N
1522969235.4,286047035.1,Y
1522969255.2,286047004.5,P
1522969275.1,286047006.8,N
1522969276.0,286047006.8,N
1522969295.8,286047006.3,N
1522969315.6,286047006.6,N
1522969335.5,286047009.2,N
1522969355.3,286047009.0,N
1522969375.1,286047008.6,N
1522969395.8,286047008.8,N
1522969415.7,286047008.8,N
1522969435.5,286047008.6,N
1522969455.3,286047008.0,N
1522969475.2,286047008.2,N
1522969495.9,286047007.7,N
1522969515.7,286047010.3,N
1522969535.6,286047010.4,N
1522969555.4,286047010.1,N
1522969575.2,286047009.6,N
1522969595.1,286047009.4,N
1522969596.0,286047009.4,N
1522969615.8,286047009.7,N
1522969635.6,286047012.0,N
1522969655.5,286047011.6,N
1522969675.3,286047011.2,N
1522969695.1,286047011.3,N
1522969715.8,286047010.9,N
1522969735.7,286047013.5,Y
1522969755.5,286047003.7,P
1522969775.3,286047003.2,N
1522969795.2,286047003.0,N
1522969815.0,286047003.3,N
1522969815.9,286047003.3,N
1522969835.7,286047005.6,N
1522969855.6,286047005.8,N
1522969875.4,286047005.2,N
1522969895.2,286047004.7,N
1522969915.1,286047004.6,N
1522969916.0,286047004.6,N
1522969935.8,286047004.6,N
1522969955.6,286047004.5,N
1522969975.5,286047007.4,Y
1522969995.3,286047002.2,P
1522970015.1,286047001.9,N
1522970035.9,286047001.8,N
1522970055.7,286047003.9,Y
1522970075.5,286047000.0,P
1522970095.4,286047000.2,N
1522970115.2,286047000.1,N
1522970135.0,286047002.4,N
1522970135.9,286047002.4,N
1522970155.8,286047002.6,N
1522970175.6,286047001.9,N
1522970195.4,286047002.0,N
1522970215.3,286047001.8,N
1522970235.1,286047004.4,Y
1522970236.0,286047004.4,P
1522970255.8,286047002.4,N
1522970275.7,286047002.2,N
1522970295.5,286047002.0,N
1522970315.3,286047001.8,N
1522970335.2,286047001.4,N
1522970355.9,286047004.4,Y
1522970375.7,286046999.7,P
1522970395.6,286047002.2,N
1522970415.4,286047002.0,N
1522970435.2,286047001.7,N
1522970455.1,286047004.4,Y
1522970456.0,286047004.4,P
1522970475.8,286047002.4,N
1522970495.6,286047000.1,N
1522970515.4,286047000.1,N
1522970535.3,286047002.8,N
1522970555.1,286047002.4,N
1522970575.8,286047002.4,N
1522970595.7,286047002.3,N
1522970615.5,286047002.3,N
1522970635.3,286047002.3,N
1522970655.2,286047002.5,N
1522970675.9,286047002.0,N
1522970695.7,286047001.5,N
1522970715.6,286047001.6,N
1522970735.4,286047001.6,N
1522970755.2,286047001.5,N
1522970775.1,286047001.5,N
1522970776.0,286047001.5,N
1522970795.8,286047001.5,N
1522970815.6,286047001.7,N
1522970835.4,286047001.3,N
1522970855.3,286047004.4,Y
1522970875.1,286047000.2,P
1522970895.9,286047000.1,N
1522970915.7,286046999.7,N
1522970935.5,286047002.8,Y
1522970955.4,286047000.0,P
1522970975.2,286047000.0,N
1522970995.0,286047000.2,N
1522970995.9,286047000.2,N
1522971015.8,286046999.8,N
1522971035.6,286046999.7,N
1522971055.4,286046999.8,N
1522971075.2,286046999.7,N
1522971095.1,286047002.4,Y
1522971096.0,286047002.4,P
1522971115.8,286047002.7,N
1522971135.6,286047002.6,N
1522971155.5,286047002.6,N
1522971175.3,286047002.2,N
1522971195.1,286047001.9,N
1522971215.9,286047001.8,N
1522971235.7,286047001.3,N
1522971255.5,286047004.3,Y
1522971275.4,286047002.4,P
1522971295.2,286047002.1,P
1522971315.0,286047001.9,P
1522971315.9,286047001.9,Y
1522971335.8,286047000.6,P
1522971355.6,286046999.9,N
1522971375.4,286047000.1,N
1522971395.3,286047002.7,Y
1522971415.1,286046999.9,P
1522971435.8,286047002.8,P
1522971455.7,286047002.4,N
1522971475.5,286047002.2,N
1522971495.3,286047001.3,N
1522971515.2,286047004.2,Y
1522971535.0,286047002.1,P
1522971535.9,286047002.1,P
1522971555.7,286047001.8,P
1522971575.6,286047004.4,Y
1522971595.4,286047002.6,P
1522971615.2,286047002.4,P
1522971635.1,286047002.2,P
1522971636.0,286047002.2,Y
1522971655.8,286047000.5,P
1522971675.6,286047000.1,N
1522971695.5,286047002.6,N
1522971715.3,286047002.1,N
1522971735.1,286047001.3,N
1522971755.9,286047004.0,Y
1522971775.7,286047001.9,P
1522971795.5,286047001.5,P
1522971815.4,286047004.0,P
1522971835.2,286047003.8,Y
1522971855.0,286047002.1,P
1522971855.9,286047002.1,P
1522971875.8,286047001.7,P
1522971895.6,286047003.9,Y
1522971915.4,286047002.6,P
1522971935.3,286047001.9,P
1522971955.1,286047001.3,P
1522971975.8,286047004.1,Y
1522971995.7,286047002.4,P
1522972015.5,286047001.9,P
1522972035.3,286047004.4,P
1522972055.2,286047004.1,Y
1522972075.0,286047002.4,P
1522972075.9,286047002.4,P
1522972095.7,286047002.1,P
1522972115.6,286047001.8,Y
1522972135.4,286047000.3,P
1522972155.2,286046999.7,N
1522972175.1,286047002.7,N
1522972176.0,286047002.7,N
1522972195.8,286047001.6,N
1522972215.6,286047004.4,Y
1522972235.5,286047001.9,P
1522972255.3,286047001.8,P
1522972275.1,286047004.0,P
1522972295.9,286047003.5,Y
1522972315.7,286047002.0,P
1522972335.5,286047001.5,P
1522972355.4,286047004.1,P
1522972375.2,286047003.1,Y
1522972395.0,286047002.0,P
1522972395.9,286047002.0,P
1522972415.8,286047001.5,P
1522972435.6,286047004.1,Y
1522972455.4,286047001.9,P
1522972475.3,286047004.0,P
1522972495.1,286047003.7,P
1522972515.9,286047006.0,Y
1522972535.7,286047001.6,P
1522972555.5,286047004.3,P
1522972575.3,286047003.2,N
1522972595.2,286047006.0,Y
1522972615.0,286047001.3,P
1522972615.9,286047001.3,N
1522972635.7,286047003.8,P
1522972655.6,286047003.2,N
1522972675.4,286047005.4,Y
1522972695.2,286047004.0,P
1522972715.1,286047003.8,P
1522972716.0,286047003.8,P
1522972735.8,286047003.4,Y
1522972755.7,286047002.4,P
1522972775.5,286047002.1,P
1522972795.3,286047001.4,N
